Regional Weather Roundup
Issued by NWS

Home | Current Version | Previous Version | Text Only | Print | Product List | Glossary Off
Versions: 1 2 3 4 5 6 7 8 9 10 11 12 13 14 15 16 17 18 19 20 21 22 23 24 25 26 27 28 29 30 31 32 33 34 35 36 37 38 39 40 41 42 43 44 45 46 47 48 49 50

000
ASUS43 KBIS 280910
RWRND

NORTH DAKOTA REGIONAL WEATHER ROUNDUP
NATIONAL WEATHER SERVICE BISMARCK ND
400 AM CDT TUE APR 28 2015

NOTE: "FAIR" INDICATES FEW OR NO CLOUDS BELOW 12,000 FEET WITH NO
SIGNIFICANT WEATHER AND/OR OBSTRUCTIONS TO VISIBILITY.


NDZ001>003-009>011-017-281000-
NORTHWEST NORTH DAKOTA

CITY           SKY/WX    TMP DP  RH WIND       PRES   REMARKS
WILLISTON      CLEAR     39  35  86 S3        30.29F
MINOT          CLEAR     39  35  86 SW9       30.27S
MINOT AFB      CLEAR     36  36 100 W10       30.26S
$$

NDZ018>021-031>035-040>046-281000-
SOUTHWEST NORTH DAKOTA

CITY           SKY/WX    TMP DP  RH WIND       PRES   REMARKS
BISMARCK       CLEAR     35  33  92 W5        30.32R
DICKINSON      CLEAR     32  29  88 W8        30.29F
GARRISON         N/A     34  33  96 CALM      30.28F
HETTINGER ARPT CLEAR     29  27  92 CALM      30.32F
$$

NDZ004>008-012>016-024-026-027-054-281000-
NORTHEAST NORTH DAKOTA

CITY           SKY/WX    TMP DP  RH WIND       PRES   REMARKS
GRAND FORKS    CLOUDY    45  43  93 N6        30.27R FOG
GRND FRKS AFB  CLOUDY    43  43 100 NW3       30.27R
DEVILS LAKE      N/A     32  28  86 CALM      30.26F VSB 1/2
$$

NDZ022-023-025-028>030-036>039-047>053-281000-
SOUTHEAST NORTH DAKOTA

CITY           SKY/WX    TMP DP  RH WIND       PRES   REMARKS
FARGO          CLOUDY    47  44  90 NW10      30.25R
JAMESTOWN      CLEAR     36  35  96 NW6       30.27S
$$



USA.gov is the U.S. government's official web portal to all federal, state and local government web resources and services.